Regional Weather Roundup
Issued by NWS

Home | Current Version | Previous Version | Text Only | Print | Product List | Glossary Off
Versions: 1 2 3 4 5 6 7 8 9 10 11 12 13 14 15 16 17 18 19 20 21 22 23 24 25 26 27 28 29 30 31 32 33 34 35 36 37 38 39 40 41 42 43 44 45 46 47 48 49 50

000
ASUS43 KFSD 221210
RWRSD

WEATHER ROUNDUP FOR SOUTH DAKOTA
NATIONAL WEATHER SERVICE SIOUX FALLS SD
600 AM CST MON JAN 22 2018

NOTE: "FAIR" INDICATES FEW OR NO CLOUDS BELOW 12,000 FEET WITH NO
SIGNIFICANT WEATHER AND/OR OBSTRUCTIONS TO VISIBILITY.


SDZ001>005-009-010-012>017-221300-
NORTHWEST AND NORTH CENTRAL SOUTH DAKOTA

CITY           SKY/WX    TMP DP  RH WIND       PRES   REMARKS
BUFFALO          N/A     17  11  77 W10       29.90S WCI   5
FAITH            N/A     19  15  84 NW8       29.96S WCI   9
MOBRIDGE       FOG       22  20  92 N8        29.96F VSB 1/2 WCI  12
$$

SDZ012>016-024>037-041>051-057-063-072>074-221300-
SOUTHWEST AND SOUTH CENTRAL SOUTH DAKOTA

CITY           SKY/WX    TMP DP  RH WIND       PRES   REMARKS
RAPID CTY ARPT CLEAR     24  15  68 N7        29.97R WCI  16
PIERRE         CLOUDY    22  22 100 NW13      29.95F FOG     WCI  10
CUSTER         PTCLDY    22   6  50 N7        29.90R WCI  13
ELLSWORTH AFB  CLEAR     28  16  60 N10       29.96R WCI  19
PHILIP         MOCLDY    20  18  92 NW5       29.98S WCI  13
PINE RIDGE     MOCLDY    18  14  84 W12       29.98R WCI   5
SPEARFISH        N/A     21  12  68 W9        29.97S WCI  11
WINNER         CLOUDY    26  24  92 NW16      29.90S FOG     WCI  14
$$

SDZ004>011-016>023-039-040-221300-
NORTHEAST SOUTH DAKOTA

CITY           SKY/WX    TMP DP  RH WIND       PRES   REMARKS
ABERDEEN       CLOUDY    23  21  92 N21       29.97F WCI   8
WATERTOWN      FOG       22  22 100 N20       29.88R VSB 1   WCI   7
BROOKINGS      LGT SNOW  24  23  96 N21G29    29.80F FOG     WCI   9
SISSETON         N/A     24  23  96 N16       29.96S WCI  11
$$

SDZ017-020-022-023-036>040-048>070-221300-
SOUTHEAST SOUTH DAKOTA

CITY           SKY/WX    TMP DP  RH WIND       PRES   REMARKS
SIOUX FALLS    LGT SNOW  28  26  92 N30G39    29.71F BLWGSNOWWCI  12
HURON          CLOUDY    22  21  96 N20G28    29.91R WCI   7
CHAMBERLAIN    CLOUDY    26  26 100 NW18      29.90S WCI  12
MITCHELL       CLOUDY    25  23  92 N25G35    29.85R WCI   9
YANKTON        LGT SNOW  32  30  93 NW26G33   29.68F FOG     WCI  18
$$

ABBREVIATIONS USED IN REMARKS
   TC - TEMPERATURE IN CELSIUS
  WCI - WIND CHILL INDEX
   HX - HEAT INDEX
  VSB - VISIBILITY





USA.gov is the U.S. government's official web portal to all federal, state and local government web resources and services.